LIBERTAD 1

Satellite information

Favourite Embed

Satellite Type and Status

PAYLOADIN ORBIT

Key statistics

Satellite LIBERTAD 1 at a glance.

Uptime

6656

Days in orbit

Revolutions

≈ 14.6

Per day

Orbit

SSO

Sun Synchronous Orbit

Inclination

98.4

Latest

Satellite identification and parameters

Extended collection of information and parameters for LIBERTAD 1.

Object identification

Identified? True

Debris? False

Object name: LIBERTAD 1

International designator: 2007-012M

Object number (NORAD): 31128

Object ID (CCSDS): 31128

Country: COLOMBIA (COL)

Current information (Y/N): Y

RCS size: SMALL

Orbital parameters

Period: 98.463 minutes

Inclination: 98.3904 deg

SMA: 7063.304 km

Apoapsis: 747.409 km

Periapsis: 622.928 km

RAAN: 145.8378 deg

Eccentricy: 0.0088118

Argument of periapsis: 76.6852 deg

Mean anomaly: 284.4156 deg

Mean motion: 14.62483385 rev/day

Mean motion (dot): 0.00001119 rev/day2

B* drag term: 0.00021879 1/REarth

Two-line elements (TLE)

Creation date: July 6, 2025, 10:56 p.m.

Reference frame: TEME

Reference center: EARTH

Epoch: July 6, 2025, 8:52 p.m. UTC

TLE line 0: 0 LIBERTAD 1

TLE line 1: 1 31128U 07012M 25187.86995468 .00001119 00000-0 21879-3 0 9995

TLE line 2: 2 31128 98.3904 145.8378 0088118 76.6852 284.4156 14.62483385967855

Live tracking on map

Real-time ground track for satellite LIBERTAD 1.

In-orbit conjunctions

A list of the most updated potential collisions computed for object LIBERTAD 1.

Target Orbit TCA Probability of collision Miss distance Type
CZ-4 DEB SSO 2025-06-04 05:59:29 0.0001937718 254.0 (m) DEBRIS
CZ-2D DEB SSO 2025-02-10 18:50:36 0.002793124 137.0 (m) DEBRIS
CZ-6A DEB SSO 2024-06-06 06:01:47 0.0004161848 826.0 (m) DEBRIS

Associated space launch

Rideshare mission with Egyptian and Saudi Arabian Earth observation satellites as well as 14 American cubesats

LIBERTAD 1 was lifted into orbit during the mission ‘Dnepr | EgyptSat 1 & Saudisat 3’, on board a Dnepr space rocket.

The launch took place on April 17, 2007, 6:46 a.m. from 109/95.

For more information about the launch, click the button.

Launch to space Dnepr | EgyptSat 1 & Saudisat 3
Dnepr | EgyptSat 1 & Saudisat 3

Agency: N/A

Status: Launch Successful

Launch date: April 17, 2007, 6:46 a.m. UTC

Rocket: Dnepr

Launch pad: 109/95

Location: Baikonur Cosmodrome, Republic of Kazakhstan

...

Latest news about this satellite

There are no fresh news available about this satellite. Check back as we update our databases every day.


Newsletter sign-up

Weekly statistics, charts and insights to help you stay on top of the space industry.